Time,TemperatureF,DewpointF,PressureIn,WindDirection,WindDirectionDegrees,WindSpeedMPH,WindSpeedGustMPH,Humidity,HourlyPrecipIn,Conditions,Clouds,dailyrainin,SoftwareType,DateUTC
2013-04-28 00:00:00,66.6,63.9,29.99,SSE,148,1.0,4.0,91,0.08,,FEW045,0.00,VWS V14.01,2013-04-28 05:00:00,
2013-04-28 00:01:00,66.3,63.6,29.99,ENE,78,0.0,2.0,91,0.09,,-RA,0.01,VWS V14.01,2013-04-28 05:01:00,
2013-04-28 00:06:00,66.3,63.6,30.00,ENE,78,0.0,2.0,91,0.09,,-RA,0.01,VWS V14.01,2013-04-28 05:06:00,
2013-04-28 00:10:00,66.4,63.7,29.99,ENE,78,0.0,2.0,91,0.09,,FEW045,0.01,VWS V14.01,2013-04-28 05:10:00,
2013-04-28 00:11:00,66.1,63.7,30.00,ENE,78,0.0,0.0,92,0.09,,-RA,0.01,VWS V14.01,2013-04-28 05:11:00,
2013-04-28 00:16:00,65.9,63.5,30.00,ENE,78,0.0,0.0,92,0.09,,-RA,0.01,VWS V14.01,2013-04-28 05:16:00,
2013-04-28 00:20:00,66.1,63.4,30.00,ENE,78,0.0,2.0,91,0.09,,FEW045,0.01,VWS V14.01,2013-04-28 05:20:00,
2013-04-28 00:21:00,65.9,63.5,30.00,ENE,78,0.0,0.0,92,0.09,,-RA,0.01,VWS V14.01,2013-04-28 05:21:00,
2013-04-28 00:26:00,65.9,63.5,30.00,ENE,78,0.0,0.0,92,0.09,,-RA,0.01,VWS V14.01,2013-04-28 05:26:00,
2013-04-28 00:30:00,65.9,63.5,30.00,ENE,78,0.0,0.0,92,0.09,,FEW045,0.01,VWS V14.01,2013-04-28 05:30:00,
2013-04-28 00:31:00,65.9,63.8,30.00,ENE,78,0.0,0.0,93,0.09,,BKN048,0.01,VWS V14.01,2013-04-28 05:31:00,
2013-04-28 00:36:00,66.1,64.0,30.00,ENE,78,0.0,0.0,93,0.09,,BKN048,0.01,VWS V14.01,2013-04-28 05:36:00,
2013-04-28 00:40:00,65.9,63.5,30.00,ENE,78,0.0,0.0,92,0.09,,FEW045,0.01,VWS V14.01,2013-04-28 05:40:00,
2013-04-28 00:41:00,66.1,64.0,30.00,ENE,78,0.0,0.0,93,0.08,,BKN048,0.01,VWS V14.01,2013-04-28 05:41:00,
2013-04-28 00:46:00,66.1,64.0,30.00,ENE,78,0.0,0.0,93,0.08,,BKN048,0.01,VWS V14.01,2013-04-28 05:46:00,
2013-04-28 00:50:00,66.1,64.0,30.00,ENE,78,0.0,0.0,93,0.09,,FEW045,0.01,VWS V14.01,2013-04-28 05:50:00,
2013-04-28 00:51:00,66.1,64.0,30.00,ENE,78,0.0,0.0,93,0.01,,BKN023,0.01,VWS V14.01,2013-04-28 05:51:00,
2013-04-28 00:56:00,66.1,64.0,30.00,ENE,78,0.0,0.0,93,0.01,,BKN023,0.01,VWS V14.01,2013-04-28 05:56:00,
2013-04-28 01:00:00,66.1,64.0,30.00,ENE,78,0.0,0.0,93,0.08,,FEW045,0.01,VWS V14.01,2013-04-28 06:00:00,
2013-04-28 01:01:00,66.3,64.2,30.00,ENE,78,0.0,0.0,93,0.00,,BKN021,0.01,VWS V14.01,2013-04-28 06:01:00,
2013-04-28 01:06:00,66.3,64.2,30.01,ENE,78,0.0,0.0,93,0.00,,BKN021,0.01,VWS V14.01,2013-04-28 06:06:00,
2013-04-28 01:10:00,66.1,64.0,30.00,ENE,78,0.0,0.0,93,0.01,,FEW045,0.01,VWS V14.01,2013-04-28 06:10:00,
2013-04-28 01:11:00,66.3,64.5,30.01,ENE,78,0.0,0.0,94,0.00,,OVC021,0.01,VWS V14.01,2013-04-28 06:11:00,
2013-04-28 01:16:00,66.3,64.5,30.01,ENE,78,0.0,0.0,94,0.00,,OVC021,0.01,VWS V14.01,2013-04-28 06:16:00,
2013-04-28 01:20:00,66.3,64.2,30.01,ENE,78,0.0,0.0,93,0.00,,FEW045,0.01,VWS V14.01,2013-04-28 06:20:00,
2013-04-28 01:21:00,66.3,64.5,30.01,ENE,78,0.0,0.0,94,0.00,,OVC021,0.01,VWS V14.01,2013-04-28 06:21:00,
2013-04-28 01:26:00,66.3,64.5,30.01,ENE,78,0.0,0.0,94,0.00,,OVC021,0.01,VWS V14.01,2013-04-28 06:26:00,
2013-04-28 01:30:00,66.3,64.5,30.01,ENE,78,0.0,0.0,94,0.00,,FEW045,0.01,VWS V14.01,2013-04-28 06:30:00,
2013-04-28 01:31:00,66.3,64.5,30.01,ENE,78,0.0,2.0,94,0.00,,OVC021,0.01,VWS V14.01,2013-04-28 06:31:00,
2013-04-28 01:36:00,66.4,64.6,30.00,ENE,78,0.0,2.0,94,0.00,,OVC021,0.01,VWS V14.01,2013-04-28 06:36:00,
2013-04-28 01:40:00,66.3,64.5,30.01,ENE,78,1.0,1.0,94,0.00,,FEW045,0.01,VWS V14.01,2013-04-28 06:40:00,
2013-04-28 01:41:00,65.9,63.8,30.00,SSW,196,0.0,1.0,93,0.00,,OVC026,0.01,VWS V14.01,2013-04-28 06:41:00,
2013-04-28 01:45:00,65.3,63.2,30.00,SE,126,0.0,6.0,93,0.00,,OVC026,0.01,VWS V14.01,2013-04-28 06:45:00,
2013-04-28 01:50:00,66.3,64.5,30.00,SSW,196,1.0,5.0,94,0.00,,FEW045,0.01,VWS V14.01,2013-04-28 06:50:00,
2013-04-28 01:51:00,65.0,62.9,29.98,SE,124,0.0,4.0,93,0.00,,OVC026,0.01,VWS V14.01,2013-04-28 06:51:00,
2013-04-28 01:56:00,64.7,62.6,29.98,ESE,123,0.0,4.0,93,0.00,,OVC026,0.01,VWS V14.01,2013-04-28 06:56:00,
2013-04-28 02:00:00,64.3,62.2,29.98,ESE,123,0.0,0.0,93,0.00,,OVC032,0.01,VWS V14.01,2013-04-28 07:00:00,
2013-04-28 02:05:00,64.2,62.1,29.98,ESE,123,0.0,0.0,93,0.00,,OVC032,0.01,VWS V14.01,2013-04-28 07:05:00,
2013-04-28 02:10:00,64.0,61.9,29.98,ESE,123,0.0,0.0,93,0.00,,OVC032,0.01,VWS V14.01,2013-04-28 07:10:00,
2013-04-28 02:15:00,63.7,61.6,29.98,ESE,123,0.0,1.0,93,0.00,,OVC032,0.01,VWS V14.01,2013-04-28 07:15:00,
2013-04-28 02:20:00,63.5,61.4,29.98,ESE,123,0.0,0.0,93,0.00,,OVC032,0.01,VWS V14.01,2013-04-28 07:20:00,
2013-04-28 02:26:00,63.2,61.2,29.98,ESE,123,0.0,0.0,93,0.00,,OVC032,0.01,VWS V14.01,2013-04-28 07:26:00,
2013-04-28 02:30:00,63.0,61.0,29.98,ESE,123,0.0,0.0,93,0.00,,OVC034,0.01,VWS V14.01,2013-04-28 07:30:00,
2013-04-28 02:35:00,62.9,60.8,29.98,ESE,123,0.0,0.0,93,0.00,,OVC034,0.01,VWS V14.01,2013-04-28 07:35:00,
2013-04-28 02:40:00,62.7,60.7,29.98,ESE,123,0.0,0.0,93,0.00,,OVC034,0.01,VWS V14.01,2013-04-28 07:40:00,
2013-04-28 02:45:00,62.7,60.7,29.98,ESE,123,0.0,0.0,93,0.00,,OVC034,0.01,VWS V14.01,2013-04-28 07:45:00,
2013-04-28 02:50:00,62.6,60.5,29.97,ESE,123,0.0,0.0,93,0.00,,OVC034,0.01,VWS V14.01,2013-04-28 07:50:00,
2013-04-28 02:55:00,62.4,60.3,29.97,ESE,123,0.0,0.0,93,0.00,,OVC034,0.01,VWS V14.01,2013-04-28 07:55:00,
2013-04-28 03:00:00,62.2,60.5,29.97,ESE,123,0.0,0.0,94,0.00,,CLR,0.01,VWS V14.01,2013-04-28 08:00:00,
2013-04-28 03:05:00,62.1,60.4,29.97,ESE,123,0.0,0.0,94,0.00,,CLR,0.01,VWS V14.01,2013-04-28 08:05:00,
2013-04-28 03:10:00,61.9,59.9,29.97,ESE,123,0.0,0.0,93,0.00,,CLR,0.01,VWS V14.01,2013-04-28 08:10:00,
2013-04-28 03:15:00,61.8,59.8,29.97,ESE,123,0.0,0.0,93,0.00,,CLR,0.01,VWS V14.01,2013-04-28 08:15:00,
2013-04-28 03:20:00,61.6,59.9,29.97,ESE,123,0.0,0.0,94,0.00,,CLR,0.01,VWS V14.01,2013-04-28 08:20:00,
2013-04-28 03:25:00,61.6,59.9,29.97,ESE,123,0.0,0.0,94,0.00,,CLR,0.01,VWS V14.01,2013-04-28 08:25:00,
2013-04-28 03:30:00,61.5,59.8,29.97,ESE,123,0.0,0.0,94,0.00,,CLR,0.01,VWS V14.01,2013-04-28 08:30:00,
2013-04-28 03:35:00,61.3,59.6,29.97,ESE,123,0.0,0.0,94,0.00,,CLR,0.01,VWS V14.01,2013-04-28 08:35:00,
2013-04-28 03:40:00,61.3,59.6,29.97,ESE,123,0.0,0.0,94,0.00,,CLR,0.01,VWS V14.01,2013-04-28 08:40:00,
2013-04-28 03:45:00,61.1,59.4,29.97,ESE,123,0.0,0.0,94,0.00,,CLR,0.01,VWS V14.01,2013-04-28 08:45:00,
2013-04-28 03:50:00,61.0,59.3,29.97,ESE,123,0.0,0.0,94,0.00,,CLR,0.01,VWS V14.01,2013-04-28 08:50:00,
2013-04-28 03:55:00,60.8,59.1,29.97,ESE,123,0.0,0.0,94,0.00,,CLR,0.01,VWS V14.01,2013-04-28 08:55:00,
2013-04-28 04:00:00,60.8,59.1,29.97,ESE,123,0.0,0.0,94,0.00,,CLR,0.01,VWS V14.01,2013-04-28 09:00:00,
2013-04-28 04:05:00,60.7,59.0,29.97,ESE,123,0.0,0.0,94,0.00,,CLR,0.01,VWS V14.01,2013-04-28 09:05:00,
2013-04-28 04:10:00,60.5,58.8,29.97,ESE,123,0.0,0.0,94,0.00,,CLR,0.01,VWS V14.01,2013-04-28 09:10:00,
2013-04-28 04:15:00,60.4,58.7,29.97,ESE,123,0.0,0.0,94,0.00,,CLR,0.01,VWS V14.01,2013-04-28 09:15:00,
2013-04-28 04:20:00,60.4,58.7,29.97,ESE,123,0.0,0.0,94,0.00,,CLR,0.01,VWS V14.01,2013-04-28 09:20:00,
2013-04-28 04:25:00,60.2,58.5,29.97,ESE,123,0.0,0.0,94,0.00,,CLR,0.01,VWS V14.01,2013-04-28 09:25:00,
2013-04-28 04:30:00,60.2,58.5,29.97,ESE,123,0.0,0.0,94,0.00,,CLR,0.01,VWS V14.01,2013-04-28 09:30:00,
2013-04-28 04:35:00,60.2,58.5,29.98,ESE,123,0.0,0.0,94,0.00,,CLR,0.01,VWS V14.01,2013-04-28 09:35:00,
2013-04-28 04:40:00,60.2,58.5,29.98,ESE,123,0.0,0.0,94,0.00,,CLR,0.01,VWS V14.01,2013-04-28 09:40:00,
2013-04-28 04:45:00,60.0,58.3,29.98,ESE,123,0.0,0.0,94,0.00,,CLR,0.01,VWS V14.01,2013-04-28 09:45:00,
2013-04-28 04:50:00,60.0,58.3,29.98,ESE,123,0.0,0.0,94,0.00,,CLR,0.01,VWS V14.01,2013-04-28 09:50:00,
2013-04-28 04:55:00,59.9,58.2,29.98,ESE,123,0.0,0.0,94,0.00,,CLR,0.01,VWS V14.01,2013-04-28 09:55:00,
2013-04-28 05:00:00,59.9,58.2,29.98,ESE,123,0.0,0.0,94,0.00,,CLR,0.01,VWS V14.01,2013-04-28 10:00:00,
2013-04-28 05:05:00,59.7,58.0,29.99,ESE,123,0.0,0.0,94,0.00,,CLR,0.01,VWS V14.01,2013-04-28 10:05:00,
2013-04-28 05:10:00,59.7,58.0,29.99,ESE,123,0.0,0.0,94,0.00,,CLR,0.01,VWS V14.01,2013-04-28 10:10:00,
2013-04-28 05:15:00,59.6,57.9,29.99,ESE,123,0.0,0.0,94,0.00,,CLR,0.01,VWS V14.01,2013-04-28 10:15:00,
2013-04-28 05:20:00,59.6,57.9,29.99,ESE,123,0.0,0.0,94,0.00,,CLR,0.01,VWS V14.01,2013-04-28 10:20:00,
2013-04-28 05:25:00,59.4,57.7,29.99,ESE,123,0.0,0.0,94,0.00,,CLR,0.01,VWS V14.01,2013-04-28 10:25:00,
2013-04-28 05:30:00,59.3,57.6,29.99,ESE,123,0.0,0.0,94,0.00,,CLR,0.01,VWS V14.01,2013-04-28 10:30:00,
2013-04-28 05:35:00,59.3,57.6,29.98,ESE,123,0.0,0.0,94,0.00,,CLR,0.01,VWS V14.01,2013-04-28 10:35:00,
2013-04-28 05:40:00,59.1,57.4,29.98,ESE,123,0.0,0.0,94,0.00,,CLR,0.01,VWS V14.01,2013-04-28 10:40:00,
2013-04-28 05:45:00,59.1,57.4,29.98,ESE,123,0.0,0.0,94,0.00,,CLR,0.01,VWS V14.01,2013-04-28 10:45:00,
2013-04-28 05:50:00,59.0,57.3,29.98,ESE,123,0.0,0.0,94,0.00,,,0.01,VWS V14.01,2013-04-28 10:50:00,
2013-04-28 05:55:00,59.0,57.3,29.98,ESE,123,0.0,0.0,94,0.00,,,0.01,VWS V14.01,2013-04-28 10:55:00,
2013-04-28 06:00:00,58.8,57.1,29.98,ESE,123,0.0,0.0,94,0.00,,,0.01,VWS V14.01,2013-04-28 11:00:00,
2013-04-28 06:05:00,58.8,57.1,29.99,ESE,123,0.0,0.0,94,0.00,,,0.01,VWS V14.01,2013-04-28 11:05:00,
2013-04-28 06:10:00,59.0,57.6,29.99,ESE,123,0.0,0.0,95,0.00,,,0.01,VWS V14.01,2013-04-28 11:10:00,
2013-04-28 06:15:00,59.1,57.7,29.99,ESE,123,0.0,0.0,95,0.00,,,0.01,VWS V14.01,2013-04-28 11:15:00,
2013-04-28 06:20:00,59.1,57.7,30.00,ESE,123,0.0,0.0,95,0.00,,,0.01,VWS V14.01,2013-04-28 11:20:00,
2013-04-28 06:25:00,59.1,57.7,30.00,ESE,123,0.0,0.0,95,0.00,,,0.01,VWS V14.01,2013-04-28 11:25:00,
2013-04-28 06:30:00,59.1,57.7,30.00,ESE,123,0.0,0.0,95,0.00,,,0.01,VWS V14.01,2013-04-28 11:30:00,
2013-04-28 06:35:00,59.0,57.3,29.99,ESE,123,0.0,0.0,94,0.00,,,0.01,VWS V14.01,2013-04-28 11:35:00,
2013-04-28 06:40:00,58.8,57.1,29.99,ESE,123,0.0,0.0,94,0.00,,,0.01,VWS V14.01,2013-04-28 11:40:00,
2013-04-28 06:45:00,58.7,57.0,29.99,ESE,123,0.0,0.0,94,0.00,,,0.01,VWS V14.01,2013-04-28 11:45:00,
2013-04-28 06:50:00,58.5,57.1,29.99,ESE,123,0.0,0.0,95,0.00,,,0.01,VWS V14.01,2013-04-28 11:50:00,
2013-04-28 06:55:00,58.7,57.3,29.99,ESE,123,0.0,0.0,95,0.00,,,0.01,VWS V14.01,2013-04-28 11:55:00,
2013-04-28 07:00:00,58.7,57.3,29.99,ESE,123,0.0,0.0,95,0.00,,,0.01,VWS V14.01,2013-04-28 12:00:00,
2013-04-28 07:05:00,58.5,57.1,29.99,ESE,123,0.0,0.0,95,0.00,,,0.01,VWS V14.01,2013-04-28 12:05:00,
2013-04-28 07:10:00,58.5,57.1,29.99,ESE,123,0.0,0.0,95,0.00,,,0.01,VWS V14.01,2013-04-28 12:10:00,
2013-04-28 07:15:00,58.4,57.0,29.99,ESE,123,0.0,0.0,95,0.00,,,0.01,VWS V14.01,2013-04-28 12:15:00,
2013-04-28 07:20:00,58.4,57.0,29.99,ESE,123,0.0,0.0,95,0.00,,,0.01,VWS V14.01,2013-04-28 12:20:00,
2013-04-28 07:25:00,58.5,57.1,29.99,ESE,123,0.0,0.0,95,0.00,,,0.01,VWS V14.01,2013-04-28 12:25:00,
2013-04-28 07:30:00,58.7,57.3,29.99,ESE,123,0.0,0.0,95,0.00,,,0.01,VWS V14.01,2013-04-28 12:30:00,
2013-04-28 07:35:00,59.0,57.6,29.99,ESE,123,0.0,0.0,95,0.00,,,0.01,VWS V14.01,2013-04-28 12:35:00,
2013-04-28 07:40:00,59.3,57.9,29.99,ESE,123,0.0,0.0,95,0.00,,,0.01,VWS V14.01,2013-04-28 12:40:00,
2013-04-28 07:45:00,59.6,58.2,29.99,ESE,123,0.0,0.0,95,0.00,,,0.01,VWS V14.01,2013-04-28 12:45:00,
2013-04-28 07:50:00,59.7,58.3,30.00,ESE,123,0.0,0.0,95,0.00,,,0.01,VWS V14.01,2013-04-28 12:50:00,
2013-04-28 07:55:00,59.7,58.3,30.00,ESE,123,0.0,0.0,95,0.00,,,0.01,VWS V14.01,2013-04-28 12:55:00,
2013-04-28 08:00:00,60.0,58.6,30.00,ESE,123,0.0,0.0,95,0.00,,CLR,0.01,VWS V14.01,2013-04-28 13:00:00,
2013-04-28 08:05:00,60.2,58.8,30.00,ESE,123,0.0,0.0,95,0.00,,CLR,0.01,VWS V14.01,2013-04-28 13:05:00,
2013-04-28 08:10:00,60.5,59.1,30.00,ESE,123,0.0,0.0,95,0.00,,CLR,0.01,VWS V14.01,2013-04-28 13:10:00,
2013-04-28 08:15:00,60.7,59.3,30.00,ESE,123,0.0,0.0,95,0.00,,CLR,0.01,VWS V14.01,2013-04-28 13:15:00,
2013-04-28 08:20:00,61.1,59.7,30.00,ESE,123,0.0,0.0,95,0.00,,CLR,0.01,VWS V14.01,2013-04-28 13:20:00,
2013-04-28 08:25:00,61.8,60.7,30.00,ESE,123,0.0,0.0,96,0.00,,CLR,0.01,VWS V14.01,2013-04-28 13:25:00,
2013-04-28 08:30:00,62.4,61.2,30.00,ESE,123,0.0,0.0,96,0.00,,CLR,0.01,VWS V14.01,2013-04-28 13:30:00,
2013-04-28 08:35:00,63.2,62.0,30.00,ESE,123,0.0,0.0,96,0.00,,CLR,0.01,VWS V14.01,2013-04-28 13:35:00,
2013-04-28 08:40:00,64.0,62.8,30.00,ESE,123,0.0,0.0,96,0.00,,CLR,0.01,VWS V14.01,2013-04-28 13:40:00,
2013-04-28 08:45:00,65.0,63.8,30.00,ESE,123,0.0,0.0,96,0.00,,CLR,0.01,VWS V14.01,2013-04-28 13:45:00,
2013-04-28 08:50:00,65.3,64.1,29.99,ESE,123,0.0,0.0,96,0.00,,CLR,0.01,VWS V14.01,2013-04-28 13:50:00,
2013-04-28 08:55:00,65.1,63.6,29.99,ESE,123,0.0,0.0,95,0.00,,CLR,0.01,VWS V14.01,2013-04-28 13:55:00,
2013-04-28 09:00:00,65.6,64.1,29.99,ESE,123,0.0,0.0,95,0.00,,CLR,0.01,VWS V14.01,2013-04-28 14:00:00,
2013-04-28 09:05:00,65.9,64.4,30.00,ESE,123,0.0,0.0,95,0.00,,CLR,0.01,VWS V14.01,2013-04-28 14:05:00,
2013-04-28 09:10:00,66.3,64.5,30.00,ESE,123,0.0,0.0,94,0.00,,CLR,0.01,VWS V14.01,2013-04-28 14:10:00,
2013-04-28 09:15:00,66.4,64.6,30.00,ESE,123,0.0,1.0,94,0.00,,CLR,0.01,VWS V14.01,2013-04-28 14:15:00,
2013-04-28 09:20:00,66.8,64.7,30.00,ESE,123,0.0,0.0,93,0.00,,CLR,0.01,VWS V14.01,2013-04-28 14:20:00,
2013-04-28 09:25:00,67.1,64.7,30.00,ESE,123,0.0,0.0,92,0.00,,CLR,0.01,VWS V14.01,2013-04-28 14:25:00,
2013-04-28 09:30:00,67.6,64.2,30.00,ESE,123,0.0,0.0,89,0.00,,CLR,0.01,VWS V14.01,2013-04-28 14:30:00,
2013-04-28 09:35:00,68.1,64.1,30.00,ESE,123,0.0,0.0,87,0.00,,CLR,0.01,VWS V14.01,2013-04-28 14:35:00,
2013-04-28 09:40:00,68.8,64.1,30.00,ESE,123,0.0,2.0,85,0.00,,CLR,0.01,VWS V14.01,2013-04-28 14:40:00,
2013-04-28 09:45:00,69.3,63.2,30.00,ESE,123,0.0,2.0,81,0.00,,CLR,0.01,VWS V14.01,2013-04-28 14:45:00,
2013-04-28 09:50:00,69.8,63.4,30.00,ESE,123,0.0,0.0,80,0.00,,CLR,0.01,VWS V14.01,2013-04-28 14:50:00,
2013-04-28 09:54:00,70.8,64.7,30.00,ESE,123,0.0,0.0,81,0.00,,CLR,0.01,VWS V14.01,2013-04-28 14:54:00,
2013-04-28 09:59:00,71.8,63.1,30.00,NNE,23,2.0,4.0,74,0.00,,CLR,0.01,VWS V14.01,2013-04-28 14:59:00,
2013-04-28 10:00:00,69.4,63.3,30.00,SE,124,0.0,2.0,81,0.00,,FEW045,0.01,VWS V14.01,2013-04-28 15:00:00,
2013-04-28 10:04:00,72.0,63.3,30.00,NNE,23,0.0,4.0,74,0.00,,CLR,0.01,VWS V14.01,2013-04-28 15:04:00,
2013-04-28 10:09:00,72.2,62.7,30.00,NNE,23,0.0,0.0,72,0.00,,CLR,0.01,VWS V14.01,2013-04-28 15:09:00,
2013-04-28 10:10:00,71.5,65.0,30.00,ESE,123,0.0,0.0,80,0.00,,FEW045,0.01,VWS V14.01,2013-04-28 15:10:00,
2013-04-28 10:14:00,72.7,63.2,30.00,NNE,23,0.0,0.0,72,0.00,,CLR,0.01,VWS V14.01,2013-04-28 15:14:00,
2013-04-28 10:19:00,73.0,62.2,30.00,NNE,23,1.0,1.0,69,0.00,,CLR,0.01,VWS V14.01,2013-04-28 15:19:00,
2013-04-28 10:20:00,72.2,63.5,30.00,NNE,23,0.0,4.0,74,0.00,,FEW045,0.01,VWS V14.01,2013-04-28 15:20:00,
2013-04-28 10:24:00,73.2,62.4,30.00,NNE,23,0.0,1.0,69,0.00,,CLR,0.01,VWS V14.01,2013-04-28 15:24:00,
2013-04-28 10:29:00,73.2,62.4,30.00,NNE,24,0.0,2.0,69,0.00,,CLR,0.01,VWS V14.01,2013-04-28 15:29:00,
2013-04-28 10:30:00,73.0,63.5,30.00,NNE,23,0.0,0.0,72,0.00,,FEW045,0.01,VWS V14.01,2013-04-28 15:30:00,
2013-04-28 10:34:00,73.5,61.5,30.00,NNE,23,2.0,2.0,66,0.00,,CLR,0.01,VWS V14.01,2013-04-28 15:34:00,
2013-04-28 10:39:00,73.7,63.3,30.00,NNE,23,0.0,1.0,70,0.00,,CLR,0.01,VWS V14.01,2013-04-28 15:39:00,
2013-04-28 10:40:00,73.2,62.4,30.00,NNE,23,0.0,1.0,69,0.00,,FEW045,0.01,VWS V14.01,2013-04-28 15:40:00,
2013-04-28 10:44:00,73.7,61.7,30.00,NNE,23,0.0,1.0,66,0.00,,CLR,0.01,VWS V14.01,2013-04-28 15:44:00,
2013-04-28 10:49:00,73.7,61.7,30.00,NNE,23,0.0,0.0,66,0.00,,CLR,0.01,VWS V14.01,2013-04-28 15:49:00,
2013-04-28 10:50:00,73.5,63.1,30.00,NNE,23,0.0,2.0,70,0.00,,FEW045,0.01,VWS V14.01,2013-04-28 15:50:00,
2013-04-28 10:54:00,73.9,61.4,30.00,NNE,23,0.0,1.0,65,0.00,,CLR,0.01,VWS V14.01,2013-04-28 15:54:00,
2013-04-28 10:59:00,74.1,60.3,30.00,NNE,23,0.0,0.0,62,0.00,,CLR,0.01,VWS V14.01,2013-04-28 15:59:00,
2013-04-28 11:00:00,73.7,62.1,30.00,NNE,23,0.0,1.0,67,0.00,,FEW045,0.01,VWS V14.01,2013-04-28 16:00:00,
2013-04-28 11:04:00,74.2,60.8,30.00,NNE,30,0.0,1.0,63,0.00,,CLR,0.01,VWS V14.01,2013-04-28 16:04:00,
2013-04-28 11:09:00,74.4,60.5,30.00,NNE,30,0.0,1.0,62,0.00,,CLR,0.01,VWS V14.01,2013-04-28 16:09:00,
2013-04-28 11:10:00,74.1,61.2,30.00,NNE,23,0.0,2.0,64,0.00,,FEW045,0.01,VWS V14.01,2013-04-28 16:10:00,
2013-04-28 11:14:00,74.8,61.8,30.00,NNE,28,0.0,3.0,64,0.00,,CLR,0.01,VWS V14.01,2013-04-28 16:14:00,
2013-04-28 11:19:00,74.6,61.2,30.00,SE,146,2.0,4.0,63,0.00,,CLR,0.01,VWS V14.01,2013-04-28 16:19:00,
2013-04-28 11:20:00,74.4,61.0,30.00,NNE,30,0.0,1.0,63,0.00,,FEW045,0.01,VWS V14.01,2013-04-28 16:20:00,
2013-04-28 11:24:00,74.2,61.7,30.00,West,269,0.0,4.0,65,0.00,,CLR,0.01,VWS V14.01,2013-04-28 16:24:00,
2013-04-28 11:29:00,74.6,62.1,30.00,NNE,24,0.0,1.0,65,0.00,,CLR,0.01,VWS V14.01,2013-04-28 16:29:00,
2013-04-28 11:30:00,74.8,60.9,30.00,SE,124,0.0,4.0,62,0.00,,FEW045,0.01,VWS V14.01,2013-04-28 16:30:00,
2013-04-28 11:34:00,74.9,60.6,30.00,SSW,194,0.0,4.0,61,0.00,,CLR,0.01,VWS V14.01,2013-04-28 16:34:00,
2013-04-28 11:39:00,75.1,62.5,30.00,SSW,194,0.0,3.0,65,0.00,,CLR,0.01,VWS V14.01,2013-04-28 16:39:00,
2013-04-28 11:40:00,74.4,61.9,30.00,NNE,27,0.0,4.0,65,0.00,,FEW045,0.01,VWS V14.01,2013-04-28 16:40:00,
2013-04-28 11:44:00,75.6,60.8,30.00,SSW,194,0.0,3.0,60,0.00,,CLR,0.01,VWS V14.01,2013-04-28 16:44:00,
2013-04-28 11:49:00,76.3,61.4,29.99,SSW,197,1.0,1.0,60,0.00,,CLR,0.01,VWS V14.01,2013-04-28 16:49:00,
2013-04-28 11:50:00,75.1,60.8,30.00,SSW,194,2.0,4.0,61,0.00,,FEW045,0.01,VWS V14.01,2013-04-28 16:50:00,
2013-04-28 11:54:00,76.9,62.4,29.99,SSW,198,0.0,3.0,61,0.00,,CLR,0.01,VWS V14.01,2013-04-28 16:54:00,
2013-04-28 11:59:00,77.1,62.6,29.99,SSW,196,2.0,2.0,61,0.00,,CLR,0.01,VWS V14.01,2013-04-28 16:59:00,
2013-04-28 12:00:00,76.2,61.3,29.99,SSW,194,0.0,3.0,60,0.00,,FEW045,0.01,VWS V14.01,2013-04-28 17:00:00,
2013-04-28 12:04:00,77.1,63.1,29.99,SSW,196,2.0,4.0,62,0.00,,CLR,0.01,VWS V14.01,2013-04-28 17:04:00,
2013-04-28 12:09:00,77.4,62.9,29.99,SSW,196,0.0,0.0,61,0.00,,CLR,0.01,VWS V14.01,2013-04-28 17:09:00,
2013-04-28 12:10:00,76.9,62.9,29.99,SSW,196,0.0,3.0,62,0.00,,FEW045,0.01,VWS V14.01,2013-04-28 17:10:00,
2013-04-28 12:14:00,78.1,63.6,29.99,ESE,121,0.0,1.0,61,0.00,,CLR,0.01,VWS V14.01,2013-04-28 17:14:00,
2013-04-28 12:19:00,78.3,63.8,29.98,SSE,155,0.0,4.0,61,0.00,,CLR,0.01,VWS V14.01,2013-04-28 17:19:00,
2013-04-28 12:20:00,77.2,63.6,29.99,SSW,196,0.0,4.0,63,0.00,,FEW045,0.01,VWS V14.01,2013-04-28 17:20:00,
2013-04-28 12:24:00,78.1,63.6,29.98,SSW,192,0.0,5.0,61,0.00,,CLR,0.01,VWS V14.01,2013-04-28 17:24:00,
2013-04-28 12:29:00,78.5,62.5,29.98,SSW,192,0.0,3.0,58,0.00,,CLR,0.01,VWS V14.01,2013-04-28 17:29:00,
2013-04-28 12:30:00,78.3,61.3,29.98,SSE,155,0.0,4.0,56,0.00,,FEW045,0.01,VWS V14.01,2013-04-28 17:30:00,
2013-04-28 12:34:00,78.9,63.4,29.98,SSW,192,0.0,3.0,59,0.00,,CLR,0.01,VWS V14.01,2013-04-28 17:34:00,
2013-04-28 12:39:00,79.1,63.1,29.98,South,188,1.0,1.0,58,0.00,,CLR,0.01,VWS V14.01,2013-04-28 17:39:00,
2013-04-28 12:40:00,78.3,64.7,29.98,SSW,192,1.0,5.0,63,0.00,,FEW045,0.01,VWS V14.01,2013-04-28 17:40:00,
2013-04-28 12:44:00,79.3,62.3,29.98,SSW,211,0.0,2.0,56,0.00,,CLR,0.01,VWS V14.01,2013-04-28 17:44:00,
2013-04-28 12:49:00,79.4,63.8,29.98,NE,40,0.0,3.0,59,0.00,,CLR,0.01,VWS V14.01,2013-04-28 17:49:00,
2013-04-28 12:50:00,78.9,62.9,29.98,SSW,192,0.0,3.0,58,0.00,,FEW045,0.01,VWS V14.01,2013-04-28 17:50:00,
2013-04-28 12:54:00,79.4,62.3,29.98,SSE,157,0.0,4.0,56,0.00,,CLR,0.01,VWS V14.01,2013-04-28 17:54:00,
2013-04-28 12:59:00,79.4,62.9,29.98,South,173,0.0,2.0,57,0.00,,CLR,0.01,VWS V14.01,2013-04-28 17:59:00,
2013-04-28 13:00:00,79.3,64.2,29.98,NNW,340,3.0,4.0,60,0.00,,FEW045,0.01,VWS V14.01,2013-04-28 18:00:00,
2013-04-28 13:04:00,79.3,63.7,29.98,SSW,192,0.0,7.0,59,0.00,,CLR,0.01,VWS V14.01,2013-04-28 18:04:00,
2013-04-28 13:09:00,79.3,63.7,29.98,North,11,1.0,1.0,59,0.00,,CLR,0.01,VWS V14.01,2013-04-28 18:09:00,
2013-04-28 13:10:00,79.4,62.8,29.98,SSE,157,0.0,4.0,57,0.00,,FEW045,0.01,VWS V14.01,2013-04-28 18:10:00,
2013-04-28 13:14:00,79.4,61.8,29.98,NE,45,2.0,2.0,55,0.00,,CLR,0.01,VWS V14.01,2013-04-28 18:14:00,
2013-04-28 13:19:00,79.4,62.9,29.98,SSE,147,0.0,1.0,57,0.00,,CLR,0.01,VWS V14.01,2013-04-28 18:19:00,
2013-04-28 13:20:00,79.3,63.7,29.98,NW,322,0.0,7.0,59,0.00,,FEW045,0.01,VWS V14.01,2013-04-28 18:20:00,
2013-04-28 13:24:00,79.6,63.5,29.98,SE,144,0.0,1.0,58,0.00,,CLR,0.01,VWS V14.01,2013-04-28 18:24:00,
2013-04-28 13:29:00,79.8,61.2,29.98,SE,146,0.0,2.0,53,0.00,,CLR,0.01,VWS V14.01,2013-04-28 18:29:00,
2013-04-28 13:30:00,79.4,64.3,29.98,SE,144,1.0,4.0,60,0.00,,FEW045,0.01,VWS V14.01,2013-04-28 18:30:00,
2013-04-28 13:34:00,79.8,62.7,29.97,West,275,0.0,6.0,56,0.00,,CLR,0.01,VWS V14.01,2013-04-28 18:34:00,
2013-04-28 13:39:00,80.0,63.9,29.97,NW,325,2.0,3.0,58,0.00,,CLR,0.01,VWS V14.01,2013-04-28 18:39:00,
2013-04-28 13:40:00,79.8,63.2,29.98,SSE,148,0.0,1.0,57,0.00,,FEW045,0.01,VWS V14.01,2013-04-28 18:40:00,
2013-04-28 13:44:00,80.4,64.3,29.97,SSE,159,0.0,3.0,58,0.00,,CLR,0.01,VWS V14.01,2013-04-28 18:44:00,
2013-04-28 13:49:00,80.6,63.0,29.96,SSE,160,0.0,0.0,55,0.00,,CLR,0.01,VWS V14.01,2013-04-28 18:49:00,
2013-04-28 13:50:00,79.8,63.7,29.97,West,275,0.0,6.0,58,0.00,,FEW045,0.01,VWS V14.01,2013-04-28 18:50:00,
2013-04-28 13:54:00,80.2,63.6,29.96,WSW,243,0.0,3.0,57,0.00,,CLR,0.01,VWS V14.01,2013-04-28 18:54:00,
2013-04-28 13:59:00,80.0,64.9,29.96,WSW,238,0.0,4.0,60,0.00,,CLR,0.01,VWS V14.01,2013-04-28 18:59:00,
2013-04-28 14:00:00,80.4,64.3,29.96,SSE,160,0.0,3.0,58,0.00,,FEW045,0.01,VWS V14.01,2013-04-28 19:00:00,
2013-04-28 14:04:00,79.8,62.2,29.95,SW,222,2.0,4.0,55,0.00,,SCT033,0.01,VWS V14.01,2013-04-28 19:04:00,
2013-04-28 14:09:00,79.6,63.0,29.95,SW,222,1.0,2.0,57,0.00,,SCT033,0.01,VWS V14.01,2013-04-28 19:09:00,
2013-04-28 14:10:00,80.0,64.4,29.96,SW,219,1.0,3.0,59,0.00,,FEW045,0.01,VWS V14.01,2013-04-28 19:10:00,
2013-04-28 14:14:00,80.0,62.9,29.95,SW,223,0.0,2.0,56,0.00,,SCT033,0.01,VWS V14.01,2013-04-28 19:14:00,
2013-04-28 14:19:00,80.4,64.3,29.95,SSW,213,2.0,2.0,58,0.00,,SCT033,0.01,VWS V14.01,2013-04-28 19:19:00,
2013-04-28 14:20:00,79.6,63.0,29.95,SW,223,0.0,4.0,57,0.00,,FEW045,0.01,VWS V14.01,2013-04-28 19:20:00,
2013-04-28 14:24:00,80.7,62.5,29.95,SSW,213,0.0,2.0,54,0.00,,SCT033,0.01,VWS V14.01,2013-04-28 19:24:00,
2013-04-28 14:29:00,80.7,62.5,29.95,North,350,0.0,3.0,54,0.00,,SCT033,0.01,VWS V14.01,2013-04-28 19:29:00,
2013-04-28 14:30:00,80.2,61.0,29.95,SSW,213,0.0,3.0,52,0.00,,FEW045,0.01,VWS V14.01,2013-04-28 19:30:00,
2013-04-28 14:34:00,80.7,60.9,29.93,North,350,1.0,3.0,51,0.00,,SCT033,0.01,VWS V14.01,2013-04-28 19:34:00,
2013-04-28 14:39:00,80.9,61.1,29.93,NW,313,0.0,5.0,51,0.00,,SCT033,0.01,VWS V14.01,2013-04-28 19:39:00,
2013-04-28 14:40:00,80.9,62.2,29.95,North,350,3.0,4.0,53,0.00,,FEW045,0.01,VWS V14.01,2013-04-28 19:40:00,
2013-04-28 14:44:00,81.1,61.8,29.93,West,279,0.0,5.0,52,0.00,,SCT033,0.01,VWS V14.01,2013-04-28 19:44:00,
2013-04-28 14:49:00,81.3,61.5,29.92,West,279,0.0,0.0,51,0.00,,SCT033,0.01,VWS V14.01,2013-04-28 19:49:00,
2013-04-28 14:50:00,80.9,61.6,29.93,NNW,338,3.0,3.0,52,0.00,,FEW045,0.01,VWS V14.01,2013-04-28 19:50:00,
2013-04-28 14:54:00,81.9,65.2,29.92,NNW,327,0.0,3.0,57,0.00,,SCT033,0.01,VWS V14.01,2013-04-28 19:54:00,
2013-04-28 14:59:00,81.5,61.1,29.92,NW,321,1.0,1.0,50,0.00,,SCT033,0.01,VWS V14.01,2013-04-28 19:59:00,
2013-04-28 15:00:00,81.3,61.5,29.92,West,279,0.0,5.0,51,0.00,,FEW045,0.01,VWS V14.01,2013-04-28 20:00:00,
2013-04-28 15:04:00,81.3,64.6,29.92,NW,321,0.0,2.0,57,0.00,,FEW036,0.01,VWS V14.01,2013-04-28 20:04:00,
2013-04-28 15:09:00,81.9,64.2,29.92,NW,319,0.0,2.0,55,0.00,,FEW036,0.01,VWS V14.01,2013-04-28 20:09:00,
2013-04-28 15:10:00,81.7,60.1,29.92,NW,321,0.0,3.0,48,0.00,,CLR,0.01,VWS V14.01,2013-04-28 20:10:00,
2013-04-28 15:14:00,82.1,61.1,29.92,NW,319,0.0,2.0,49,0.00,,FEW036,0.01,VWS V14.01,2013-04-28 20:14:00,
2013-04-28 15:19:00,82.1,60.5,29.91,NNE,32,0.0,3.0,48,0.00,,FEW036,0.01,VWS V14.01,2013-04-28 20:19:00,
2013-04-28 15:20:00,81.7,64.0,29.92,NW,319,1.0,2.0,55,0.00,,FEW045,0.01,VWS V14.01,2013-04-28 20:20:00,
2013-04-28 15:24:00,82.1,61.6,29.91,SE,146,1.0,3.0,50,0.00,,FEW036,0.01,VWS V14.01,2013-04-28 20:24:00,
2013-04-28 15:29:00,82.5,63.1,29.91,SE,146,0.0,1.0,52,0.00,,FEW036,0.01,VWS V14.01,2013-04-28 20:29:00,
2013-04-28 15:30:00,82.3,61.2,29.91,NNE,21,3.0,4.0,49,0.00,,FEW045,0.01,VWS V14.01,2013-04-28 20:30:00,
2013-04-28 15:34:00,83.1,62.5,29.90,SSE,157,0.0,1.0,50,0.00,,FEW036,0.01,VWS V14.01,2013-04-28 20:34:00,
2013-04-28 15:39:00,83.5,63.5,29.90,SSE,157,0.0,0.0,51,0.00,,FEW036,0.01,VWS V14.01,2013-04-28 20:39:00,
2013-04-28 15:40:00,82.3,62.4,29.91,SE,146,0.0,3.0,51,0.00,,FEW045,0.01,VWS V14.01,2013-04-28 20:40:00,
2013-04-28 15:44:00,83.3,60.4,29.90,NW,304,0.0,4.0,46,0.00,,FEW036,0.01,VWS V14.01,2013-04-28 20:44:00,
2013-04-28 15:49:00,82.7,62.2,29.89,NW,304,1.0,2.0,50,0.00,,FEW036,0.01,VWS V14.01,2013-04-28 20:49:00,
2013-04-28 15:50:00,83.5,63.5,29.90,SSE,157,0.0,1.0,51,0.00,,FEW045,0.01,VWS V14.01,2013-04-28 20:50:00,
2013-04-28 15:54:00,82.5,63.1,29.89,WSW,253,0.0,2.0,52,0.00,,FEW036,0.01,VWS V14.01,2013-04-28 20:54:00,
2013-04-28 15:59:00,82.3,60.7,29.89,WNW,290,0.0,1.0,48,0.00,,FEW036,0.01,VWS V14.01,2013-04-28 20:59:00,
2013-04-28 16:00:00,82.9,61.8,29.89,NW,304,0.0,4.0,49,0.00,,FEW045,0.01,VWS V14.01,2013-04-28 21:00:00,
2013-04-28 16:04:00,81.9,61.5,29.88,WNW,289,0.0,1.0,50,0.00,,SCT046,0.01,VWS V14.01,2013-04-28 21:04:00,
2013-04-28 16:09:00,81.5,61.7,29.88,WNW,289,0.0,1.0,51,0.00,,SCT046,0.01,VWS V14.01,2013-04-28 21:09:00,
2013-04-28 16:10:00,82.5,58.4,29.89,WNW,290,0.0,3.0,44,0.00,,FEW045,0.01,VWS V14.01,2013-04-28 21:10:00,
2013-04-28 16:14:00,81.7,61.3,29.88,WNW,289,1.0,1.0,50,0.00,,SCT046,0.01,VWS V14.01,2013-04-28 21:14:00,
2013-04-28 16:19:00,81.7,61.3,29.87,WNW,289,0.0,0.0,50,0.00,,SCT046,0.01,VWS V14.01,2013-04-28 21:19:00,
2013-04-28 16:20:00,81.5,60.5,29.88,WNW,289,0.0,1.0,49,0.00,,FEW045,0.01,VWS V14.01,2013-04-28 21:20:00,
2013-04-28 16:24:00,81.7,61.3,29.87,WNW,291,0.0,1.0,50,0.00,,SCT046,0.01,VWS V14.01,2013-04-28 21:24:00,
2013-04-28 16:29:00,81.7,60.1,29.87,WNW,290,0.0,1.0,48,0.00,,SCT046,0.01,VWS V14.01,2013-04-28 21:29:00,
2013-04-28 16:30:00,81.7,60.7,29.87,WNW,289,0.0,2.0,49,0.00,,FEW045,0.01,VWS V14.01,2013-04-28 21:30:00,
2013-04-28 16:34:00,81.7,60.1,29.86,WNW,290,1.0,1.0,48,0.00,,SCT046,0.01,VWS V14.01,2013-04-28 21:34:00,
2013-04-28 16:39:00,81.7,61.3,29.86,WNW,284,1.0,3.0,50,0.00,,SCT046,0.01,VWS V14.01,2013-04-28 21:39:00,
2013-04-28 16:40:00,81.7,60.7,29.87,WNW,290,1.0,2.0,49,0.00,,FEW045,0.01,VWS V14.01,2013-04-28 21:40:00,
2013-04-28 16:44:00,81.7,60.7,29.86,WNW,285,0.0,3.0,49,0.00,,SCT046,0.01,VWS V14.01,2013-04-28 21:44:00,
2013-04-28 16:49:00,81.5,60.5,29.86,WNW,285,1.0,1.0,49,0.00,,SCT046,0.01,VWS V14.01,2013-04-28 21:49:00,
2013-04-28 16:50:00,81.7,61.3,29.86,WNW,290,0.0,1.0,50,0.00,,FEW045,0.01,VWS V14.01,2013-04-28 21:50:00,
2013-04-28 16:54:00,81.3,60.3,29.86,WNW,284,0.0,3.0,49,0.00,,SCT046,0.01,VWS V14.01,2013-04-28 21:54:00,
2013-04-28 16:59:00,81.5,59.9,29.86,WNW,284,0.0,2.0,48,0.00,,SCT046,0.01,VWS V14.01,2013-04-28 21:59:00,
2013-04-28 17:00:00,81.7,60.7,29.86,WNW,285,0.0,3.0,49,0.00,,FEW045,0.01,VWS V14.01,2013-04-28 22:00:00,
2013-04-28 17:04:00,81.5,58.8,29.86,WNW,284,0.0,2.0,46,0.00,,CLR,0.01,VWS V14.01,2013-04-28 22:04:00,
2013-04-28 17:09:00,81.7,60.1,29.86,WNW,284,1.0,1.0,48,0.00,,CLR,0.01,VWS V14.01,2013-04-28 22:09:00,
2013-04-28 17:10:00,81.3,59.2,29.86,WNW,284,0.0,3.0,47,0.00,,FEW045,0.01,VWS V14.01,2013-04-28 22:10:00,
2013-04-28 17:14:00,81.7,58.9,29.86,WNW,286,0.0,2.0,46,0.00,,CLR,0.01,VWS V14.01,2013-04-28 22:14:00,
2013-04-28 17:19:00,81.9,62.0,29.86,WNW,286,0.0,0.0,51,0.00,,CLR,0.01,VWS V14.01,2013-04-28 22:19:00,
2013-04-28 17:20:00,81.7,59.5,29.86,WNW,284,0.0,2.0,47,0.00,,FEW045,0.01,VWS V14.01,2013-04-28 22:20:00,
2013-04-28 17:24:00,82.1,60.5,29.86,WNW,294,1.0,1.0,48,0.00,,CLR,0.01,VWS V14.01,2013-04-28 22:24:00,
2013-04-28 17:29:00,81.7,60.7,29.86,WNW,294,0.0,0.0,49,0.00,,CLR,0.01,VWS V14.01,2013-04-28 22:29:00,
2013-04-28 17:30:00,81.9,60.3,29.86,WNW,286,0.0,2.0,48,0.00,,FEW045,0.01,VWS V14.01,2013-04-28 22:30:00,
2013-04-28 17:34:00,81.5,60.5,29.86,WNW,292,0.0,1.0,49,0.00,,CLR,0.01,VWS V14.01,2013-04-28 22:34:00,
2013-04-28 17:39:00,81.5,59.9,29.86,WNW,292,0.0,1.0,48,0.00,,CLR,0.01,VWS V14.01,2013-04-28 22:39:00,
2013-04-28 17:40:00,81.9,60.9,29.86,WNW,294,0.0,1.0,49,0.00,,FEW045,0.01,VWS V14.01,2013-04-28 22:40:00,
2013-04-28 17:44:00,81.3,60.3,29.86,WNW,292,0.0,1.0,49,0.00,,CLR,0.01,VWS V14.01,2013-04-28 22:44:00,
2013-04-28 17:49:00,81.1,60.2,29.86,WNW,292,1.0,1.0,49,0.00,,CLR,0.01,VWS V14.01,2013-04-28 22:49:00,
2013-04-28 17:50:00,81.5,60.5,29.86,WNW,292,0.0,1.0,49,0.00,,FEW045,0.01,VWS V14.01,2013-04-28 22:50:00,
2013-04-28 17:54:00,80.7,59.8,29.86,WNW,292,0.0,1.0,49,0.00,,CLR,0.01,VWS V14.01,2013-04-28 22:54:00,
2013-04-28 17:59:00,80.6,59.7,29.86,WNW,292,0.0,0.0,49,0.00,,CLR,0.01,VWS V14.01,2013-04-28 22:59:00,
2013-04-28 18:00:00,81.1,60.7,29.86,WNW,292,0.0,1.0,50,0.00,,FEW045,0.01,VWS V14.01,2013-04-28 23:00:00,
2013-04-28 18:04:00,80.4,60.6,29.86,WNW,292,0.0,0.0,51,0.00,,FEW050,0.01,VWS V14.01,2013-04-28 23:04:00,
2013-04-28 18:09:00,80.2,59.9,29.86,WNW,290,0.0,1.0,50,0.00,,FEW050,0.01,VWS V14.01,2013-04-28 23:09:00,
2013-04-28 18:10:00,80.7,60.3,29.86,WNW,292,0.0,1.0,50,0.00,,FEW045,0.01,VWS V14.01,2013-04-28 23:10:00,
2013-04-28 18:14:00,80.0,60.3,29.86,WNW,290,0.0,1.0,51,0.00,,FEW050,0.01,VWS V14.01,2013-04-28 23:14:00,
2013-04-28 18:19:00,79.8,60.6,29.86,WNW,290,0.0,0.0,52,0.00,,FEW050,0.01,VWS V14.01,2013-04-28 23:19:00,
2013-04-28 18:20:00,80.4,59.5,29.86,WNW,292,1.0,1.0,49,0.00,,FEW045,0.01,VWS V14.01,2013-04-28 23:20:00,
2013-04-28 18:24:00,79.4,59.7,29.86,WNW,289,0.0,0.0,51,0.00,,FEW050,0.01,VWS V14.01,2013-04-28 23:24:00,
2013-04-28 18:29:00,79.3,60.7,29.86,WNW,289,0.0,0.0,53,0.00,,FEW050,0.01,VWS V14.01,2013-04-28 23:29:00,
2013-04-28 18:30:00,79.8,61.7,29.86,WNW,290,0.0,1.0,54,0.00,,FEW045,0.01,VWS V14.01,2013-04-28 23:30:00,
2013-04-28 18:34:00,79.3,60.2,29.86,WNW,289,0.0,0.0,52,0.00,,FEW050,0.01,VWS V14.01,2013-04-28 23:34:00,
2013-04-28 18:39:00,79.3,61.8,29.86,WNW,289,0.0,1.0,55,0.00,,FEW050,0.01,VWS V14.01,2013-04-28 23:39:00,
2013-04-28 18:40:00,79.4,59.7,29.86,WNW,289,0.0,0.0,51,0.00,,FEW045,0.01,VWS V14.01,2013-04-28 23:40:00,
2013-04-28 18:44:00,79.1,60.5,29.86,WNW,284,2.0,2.0,53,0.00,,FEW050,0.01,VWS V14.01,2013-04-28 23:44:00,
2013-04-28 18:49:00,78.9,60.3,29.86,WNW,284,0.0,0.0,53,0.00,,FEW050,0.01,VWS V14.01,2013-04-28 23:49:00,
2013-04-28 18:50:00,79.3,60.2,29.86,WNW,289,0.0,0.0,52,0.00,,FEW045,0.01,VWS V14.01,2013-04-28 23:50:00,
2013-04-28 18:54:00,78.7,60.2,29.86,WNW,284,0.0,0.0,53,0.00,,FEW050,0.01,VWS V14.01,2013-04-28 23:54:00,
2013-04-28 18:59:00,78.5,60.0,29.86,WNW,284,0.0,0.0,53,0.00,,FEW050,0.01,VWS V14.01,2013-04-28 23:59:00,
2013-04-28 19:00:00,78.9,60.3,29.86,WNW,284,0.0,2.0,53,0.00,,FEW045,0.01,VWS V14.01,2013-04-29 00:00:00,
2013-04-28 19:04:00,78.3,59.8,29.86,WNW,284,0.0,0.0,53,0.00,,CLR,0.01,VWS V14.01,2013-04-29 00:04:00,
2013-04-28 19:09:00,78.1,60.1,29.86,WNW,284,0.0,0.0,54,0.00,,CLR,0.01,VWS V14.01,2013-04-29 00:09:00,
2013-04-28 19:10:00,78.5,60.0,29.86,WNW,284,0.0,0.0,53,0.00,,FEW045,0.01,VWS V14.01,2013-04-29 00:10:00,
2013-04-28 19:14:00,77.8,59.8,29.86,WNW,284,0.0,0.0,54,0.00,,CLR,0.01,VWS V14.01,2013-04-29 00:14:00,
2013-04-28 19:19:00,77.6,60.2,29.86,WNW,284,0.0,0.0,55,0.00,,CLR,0.01,VWS V14.01,2013-04-29 00:19:00,
2013-04-28 19:20:00,78.1,59.6,29.86,WNW,284,0.0,0.0,53,0.00,,FEW045,0.01,VWS V14.01,2013-04-29 00:20:00,
2013-04-28 19:24:00,77.4,60.0,29.86,WNW,284,0.0,0.0,55,0.00,,CLR,0.01,VWS V14.01,2013-04-29 00:24:00,
2013-04-28 19:29:00,77.2,59.8,29.86,WNW,284,0.0,0.0,55,0.00,,CLR,0.01,VWS V14.01,2013-04-29 00:29:00,
2013-04-28 19:30:00,77.8,60.4,29.86,WNW,284,0.0,0.0,55,0.00,,FEW045,0.01,VWS V14.01,2013-04-29 00:30:00,
2013-04-28 19:34:00,76.9,60.0,29.87,WNW,284,0.0,0.0,56,0.00,,CLR,0.01,VWS V14.01,2013-04-29 00:34:00,
2013-04-28 19:39:00,76.7,60.3,29.87,WNW,284,0.0,0.0,57,0.00,,CLR,0.01,VWS V14.01,2013-04-29 00:39:00,
2013-04-28 19:40:00,77.2,59.8,29.86,WNW,284,0.0,0.0,55,0.00,,FEW045,0.01,VWS V14.01,2013-04-29 00:40:00,
2013-04-28 19:44:00,76.3,60.5,29.87,WNW,284,0.0,0.0,58,0.00,,CLR,0.01,VWS V14.01,2013-04-29 00:44:00,
2013-04-28 19:49:00,76.2,61.3,29.87,WNW,284,0.0,0.0,60,0.00,,CLR,0.01,VWS V14.01,2013-04-29 00:49:00,
2013-04-28 19:50:00,76.7,60.3,29.87,WNW,284,0.0,0.0,57,0.00,,FEW045,0.01,VWS V14.01,2013-04-29 00:50:00,
2013-04-28 19:54:00,75.8,61.4,29.87,WNW,284,0.0,0.0,61,0.00,,CLR,0.01,VWS V14.01,2013-04-29 00:54:00,
2013-04-28 19:59:00,75.6,61.2,29.87,WNW,284,0.0,0.0,61,0.00,,CLR,0.01,VWS V14.01,2013-04-29 00:59:00,
2013-04-28 20:00:00,76.2,60.8,29.87,WNW,284,0.0,0.0,59,0.00,,FEW045,0.01,VWS V14.01,2013-04-29 01:00:00,
2013-04-28 20:03:00,75.3,61.4,29.87,WNW,284,0.0,0.0,62,0.00,,CLR,0.01,VWS V14.01,2013-04-29 01:03:00,
2013-04-28 20:08:00,75.1,61.7,29.87,WNW,284,0.0,0.0,63,0.00,,CLR,0.01,VWS V14.01,2013-04-29 01:08:00,
2013-04-28 20:10:00,75.6,60.8,29.87,WNW,284,0.0,0.0,60,0.00,,FEW045,0.01,VWS V14.01,2013-04-29 01:10:00,
2013-04-28 20:13:00,74.8,62.3,29.87,WNW,284,0.0,0.0,65,0.00,,CLR,0.01,VWS V14.01,2013-04-29 01:13:00,
2013-04-28 20:18:00,74.4,61.9,29.89,WNW,284,0.0,0.0,65,0.00,,CLR,0.01,VWS V14.01,2013-04-29 01:18:00,
2013-04-28 20:20:00,75.1,61.2,29.87,WNW,284,0.0,0.0,62,0.00,,FEW045,0.01,VWS V14.01,2013-04-29 01:20:00,
2013-04-28 20:23:00,74.2,61.2,29.89,WNW,284,0.0,0.0,64,0.00,,CLR,0.01,VWS V14.01,2013-04-29 01:23:00,
2013-04-28 20:28:00,73.9,61.4,29.89,WNW,284,0.0,0.0,65,0.00,,CLR,0.01,VWS V14.01,2013-04-29 01:28:00,
2013-04-28 20:30:00,74.6,61.6,29.89,WNW,284,0.0,0.0,64,0.00,,FEW045,0.01,VWS V14.01,2013-04-29 01:30:00,
2013-04-28 20:33:00,73.7,62.1,29.89,WNW,284,0.0,0.0,67,0.00,,CLR,0.01,VWS V14.01,2013-04-29 01:33:00,
2013-04-28 20:38:00,73.4,61.4,29.89,WNW,284,0.0,0.0,66,0.00,,CLR,0.01,VWS V14.01,2013-04-29 01:38:00,
2013-04-28 20:40:00,73.9,61.4,29.89,WNW,284,0.0,0.0,65,0.00,,FEW045,0.01,VWS V14.01,2013-04-29 01:40:00,
2013-04-28 20:43:00,73.0,61.8,29.89,WNW,284,0.0,0.0,68,0.00,,CLR,0.01,VWS V14.01,2013-04-29 01:43:00,
2013-04-28 20:48:00,72.8,61.6,29.89,WNW,284,0.0,0.0,68,0.00,,CLR,0.01,VWS V14.01,2013-04-29 01:48:00,
2013-04-28 20:50:00,73.4,61.8,29.89,WNW,284,0.0,0.0,67,0.00,,FEW045,0.01,VWS V14.01,2013-04-29 01:50:00,
2013-04-28 20:53:00,72.5,61.8,29.89,WNW,284,0.0,0.0,69,0.00,,CLR,0.01,VWS V14.01,2013-04-29 01:53:00,
2013-04-28 20:58:00,72.3,62.0,29.89,WNW,284,0.0,0.0,70,0.00,,CLR,0.01,VWS V14.01,2013-04-29 01:58:00,
2013-04-28 21:00:00,72.8,61.6,29.89,WNW,284,0.0,0.0,68,0.00,,FEW045,0.01,VWS V14.01,2013-04-29 02:00:00,
2013-04-28 21:03:00,72.2,61.9,29.90,WNW,284,0.0,0.0,70,0.00,,CLR,0.01,VWS V14.01,2013-04-29 02:03:00,
2013-04-28 21:08:00,72.0,61.7,29.90,WNW,284,0.0,0.0,70,0.00,,CLR,0.01,VWS V14.01,2013-04-29 02:08:00,
2013-04-28 21:10:00,72.3,61.6,29.89,WNW,284,0.0,0.0,69,0.00,,FEW045,0.01,VWS V14.01,2013-04-29 02:10:00,
2013-04-28 21:13:00,72.0,62.1,29.90,WNW,284,0.0,0.0,71,0.00,,CLR,0.01,VWS V14.01,2013-04-29 02:13:00,
2013-04-28 21:18:00,71.8,61.9,29.90,WNW,284,0.0,0.0,71,0.00,,CLR,0.01,VWS V14.01,2013-04-29 02:18:00,
2013-04-28 21:20:00,72.2,61.9,29.90,WNW,284,0.0,0.0,70,0.00,,FEW045,0.01,VWS V14.01,2013-04-29 02:20:00,
2013-04-28 21:23:00,71.8,62.3,29.90,WNW,284,0.0,0.0,72,0.00,,CLR,0.01,VWS V14.01,2013-04-29 02:23:00,
2013-04-28 21:28:00,71.6,62.1,29.90,WNW,284,0.0,0.0,72,0.00,,CLR,0.01,VWS V14.01,2013-04-29 02:28:00,
2013-04-28 21:30:00,71.8,61.9,29.90,WNW,284,0.0,0.0,71,0.00,,FEW045,0.01,VWS V14.01,2013-04-29 02:30:00,
2013-04-28 21:33:00,71.6,62.1,29.92,WNW,284,0.0,0.0,72,0.00,,CLR,0.01,VWS V14.01,2013-04-29 02:33:00,
2013-04-28 21:38:00,71.6,62.5,29.92,WNW,284,0.0,0.0,73,0.00,,CLR,0.01,VWS V14.01,2013-04-29 02:38:00,
2013-04-28 21:40:00,71.6,62.1,29.90,WNW,284,0.0,0.0,72,0.00,,FEW045,0.01,VWS V14.01,2013-04-29 02:40:00,
2013-04-28 21:43:00,71.5,62.4,29.92,WNW,284,0.0,0.0,73,0.00,,CLR,0.01,VWS V14.01,2013-04-29 02:43:00,
2013-04-28 21:48:00,71.3,62.6,29.92,WNW,284,0.0,0.0,74,0.00,,CLR,0.01,VWS V14.01,2013-04-29 02:48:00,
2013-04-28 21:50:00,71.6,62.5,29.92,WNW,284,0.0,0.0,73,0.00,,FEW045,0.01,VWS V14.01,2013-04-29 02:50:00,
2013-04-28 21:53:00,71.3,63.0,29.92,WNW,284,0.0,0.0,75,0.00,,CLR,0.01,VWS V14.01,2013-04-29 02:53:00,
2013-04-28 21:58:00,71.1,62.8,29.92,WNW,284,0.0,0.0,75,0.00,,CLR,0.01,VWS V14.01,2013-04-29 02:58:00,
2013-04-28 22:00:00,71.5,62.8,29.92,WNW,284,0.0,0.0,74,0.00,,FEW045,0.01,VWS V14.01,2013-04-29 03:00:00,
2013-04-28 22:03:00,71.0,62.7,29.93,WNW,284,0.0,0.0,75,0.00,,CLR,0.01,VWS V14.01,2013-04-29 03:03:00,
2013-04-28 22:08:00,70.8,62.9,29.93,WNW,284,0.0,0.0,76,0.00,,CLR,0.01,VWS V14.01,2013-04-29 03:08:00,
2013-04-28 22:10:00,71.1,62.8,29.92,WNW,284,0.0,0.0,75,0.00,,FEW045,0.01,VWS V14.01,2013-04-29 03:10:00,
2013-04-28 22:13:00,70.6,63.0,29.93,WNW,284,0.0,0.0,77,0.00,,CLR,0.01,VWS V14.01,2013-04-29 03:13:00,
2013-04-28 22:18:00,70.4,62.8,29.93,WNW,284,0.0,0.0,77,0.00,,CLR,0.01,VWS V14.01,2013-04-29 03:18:00,
2013-04-28 22:20:00,70.8,62.9,29.93,WNW,284,0.0,0.0,76,0.00,,FEW045,0.01,VWS V14.01,2013-04-29 03:20:00,
2013-04-28 22:23:00,70.3,62.8,29.93,WNW,284,0.0,0.0,77,0.00,,CLR,0.01,VWS V14.01,2013-04-29 03:23:00,
2013-04-28 22:28:00,70.1,62.6,29.93,WNW,284,0.0,0.0,77,0.00,,CLR,0.01,VWS V14.01,2013-04-29 03:28:00,
2013-04-28 22:30:00,70.4,62.8,29.93,WNW,284,0.0,0.0,77,0.00,,FEW045,0.01,VWS V14.01,2013-04-29 03:30:00,
2013-04-28 22:33:00,69.9,63.1,29.93,WNW,284,0.0,0.0,79,0.00,,CLR,0.01,VWS V14.01,2013-04-29 03:33:00,
2013-04-28 22:38:00,69.6,62.8,29.93,WNW,284,0.0,0.0,79,0.00,,CLR,0.01,VWS V14.01,2013-04-29 03:38:00,
2013-04-28 22:40:00,70.1,62.6,29.93,WNW,284,0.0,0.0,77,0.00,,FEW045,0.01,VWS V14.01,2013-04-29 03:40:00,
2013-04-28 22:43:00,69.4,63.0,29.93,WNW,284,0.0,0.0,80,0.00,,CLR,0.01,VWS V14.01,2013-04-29 03:43:00,
2013-04-28 22:48:00,69.3,63.2,29.93,WNW,284,0.0,0.0,81,0.00,,CLR,0.01,VWS V14.01,2013-04-29 03:48:00,
2013-04-28 22:50:00,69.8,63.0,29.93,WNW,284,0.0,0.0,79,0.00,,FEW045,0.01,VWS V14.01,2013-04-29 03:50:00,
2013-04-28 22:53:00,69.1,63.0,29.93,WNW,284,0.0,0.0,81,0.00,,CLR,0.01,VWS V14.01,2013-04-29 03:53:00,
2013-04-28 22:58:00,68.9,62.8,29.93,WNW,284,0.0,0.0,81,0.00,,CLR,0.01,VWS V14.01,2013-04-29 03:58:00,
2013-04-28 23:00:00,69.4,63.3,29.93,WNW,284,0.0,0.0,81,0.00,,FEW045,0.01,VWS V14.01,2013-04-29 04:00:00,
2013-04-28 23:01:00,68.8,63.1,29.93,WNW,284,0.0,0.0,82,0.00,,CLR,0.01,VWS V14.01,2013-04-29 04:01:00,
2013-04-28 23:06:00,68.4,63.0,29.93,WNW,284,0.0,0.0,83,0.00,,CLR,0.01,VWS V14.01,2013-04-29 04:06:00,
2013-04-28 23:10:00,68.9,62.8,29.93,WNW,284,0.0,0.0,81,0.00,,FEW045,0.01,VWS V14.01,2013-04-29 04:10:00,
2013-04-28 23:11:00,68.3,62.9,29.93,WNW,284,0.0,0.0,83,0.00,,CLR,0.01,VWS V14.01,2013-04-29 04:11:00,
2013-04-28 23:16:00,68.1,62.8,29.93,WNW,284,0.0,0.0,83,0.00,,CLR,0.01,VWS V14.01,2013-04-29 04:16:00,
2013-04-28 23:20:00,68.4,63.0,29.93,WNW,284,0.0,0.0,83,0.00,,FEW045,0.01,VWS V14.01,2013-04-29 04:20:00,
2013-04-28 23:21:00,67.8,62.5,29.93,WNW,284,0.0,0.0,83,0.00,,CLR,0.01,VWS V14.01,2013-04-29 04:21:00,
2013-04-28 23:26:00,67.8,62.8,29.93,WNW,284,0.0,0.0,84,0.00,,CLR,0.01,VWS V14.01,2013-04-29 04:26:00,
2013-04-28 23:30:00,67.9,62.5,29.93,WNW,284,0.0,0.0,83,0.00,,FEW045,0.01,VWS V14.01,2013-04-29 04:30:00,
2013-04-28 23:31:00,67.6,62.6,29.93,WNW,284,0.0,0.0,84,0.00,,CLR,0.01,VWS V14.01,2013-04-29 04:31:00,
2013-04-28 23:36:00,67.4,62.7,29.93,WNW,284,0.0,0.0,85,0.00,,CLR,0.01,VWS V14.01,2013-04-29 04:36:00,
2013-04-28 23:40:00,67.6,62.6,29.93,WNW,284,0.0,0.0,84,0.00,,FEW045,0.01,VWS V14.01,2013-04-29 04:40:00,
2013-04-28 23:41:00,67.3,62.6,29.93,WNW,284,0.0,0.0,85,0.00,,CLR,0.01,VWS V14.01,2013-04-29 04:41:00,
2013-04-28 23:46:00,67.1,62.8,29.93,WNW,284,0.0,0.0,86,0.00,,CLR,0.01,VWS V14.01,2013-04-29 04:46:00,
2013-04-28 23:50:00,67.4,62.7,29.93,WNW,284,0.0,0.0,85,0.00,,FEW045,0.01,VWS V14.01,2013-04-29 04:50:00,
2013-04-28 23:51:00,67.1,63.1,29.93,WNW,284,0.0,0.0,87,0.00,,CLR,0.00,VWS V14.01,2013-04-29 04:51:00,
2013-04-28 23:56:00,66.9,62.9,29.93,WNW,284,0.0,0.0,87,0.00,,CLR,0.00,VWS V14.01,2013-04-29 04:56:00,